Time,TemperatureF,DewpointF,PressureIn,WindDirection,WindDirectionDegrees,WindSpeedMPH,WindSpeedGustMPH,Humidity,HourlyPrecipIn,Conditions,Clouds,dailyrainin,SoftwareType,DateUTC
2013-05-02 00:03:00,46.0,-99.9,30.47,ESE,106,1.0,2.0,-999,-99.99,,,-99.99,,2013-05-02 04:03:00,
2013-05-02 00:12:00,46.0,-99.9,30.47,East,89,1.0,2.0,-999,-99.99,,,-99.99,,2013-05-02 04:12:00,
2013-05-02 00:23:00,46.0,-99.9,30.46,ESE,113,2.0,2.0,-999,-99.99,,,-99.99,,2013-05-02 04:23:00,
2013-05-02 00:33:00,46.0,-99.9,30.46,ENE,75,1.0,2.0,-999,-99.99,,,-99.99,,2013-05-02 04:33:00,
2013-05-02 00:43:00,46.0,-99.9,30.46,ENE,65,1.0,2.0,-999,-99.99,,,-99.99,,2013-05-02 04:43:00,
2013-05-02 00:52:00,46.0,-99.9,30.46,NNE,28,-999.0,2.0,-999,-99.99,,,-99.99,,2013-05-02 04:52:00,
2013-05-02 01:02:00,46.0,-99.9,30.46,NNE,32,1.0,2.0,-999,-99.99,,,-99.99,,2013-05-02 05:02:00,
2013-05-02 01:12:00,46.0,-99.9,30.46,NNE,24,0.0,2.0,-999,-99.99,,,-99.99,,2013-05-02 05:12:00,
2013-05-02 01:22:00,45.0,-99.9,30.45,SSE,153,0.0,2.0,-999,-99.99,,,-99.99,,2013-05-02 05:22:00,
2013-05-02 01:32:00,45.0,-99.9,30.45,North,-999,-999.0,-999.0,-999,-99.99,,,-99.99,,2013-05-02 05:32:00,
2013-05-02 01:42:00,45.0,-99.9,30.45,North,-999,-999.0,-999.0,-999,-99.99,,,-99.99,,2013-05-02 05:42:00,
2013-05-02 01:52:00,45.0,-99.9,30.44,NW,312,-999.0,1.0,-999,-99.99,,,-99.99,,2013-05-02 05:52:00,
2013-05-02 02:02:00,45.0,-99.9,30.44,NNW,331,1.0,1.0,-999,-99.99,,,-99.99,,2013-05-02 06:02:00,
2013-05-02 02:12:00,45.0,-99.9,30.44,WNW,303,1.0,1.0,-999,-99.99,,,-99.99,,2013-05-02 06:12:00,
2013-05-02 02:22:00,45.0,-99.9,30.44,NNW,330,1.0,1.0,-999,-99.99,,,-99.99,,2013-05-02 06:22:00,
2013-05-02 02:32:00,45.0,-99.9,30.44,NW,325,1.0,2.0,-999,-99.99,,,-99.99,,2013-05-02 06:32:00,
2013-05-02 02:42:00,45.0,-99.9,30.44,NNW,347,1.0,2.0,-999,-99.99,,,-99.99,,2013-05-02 06:42:00,
2013-05-02 02:52:00,45.0,-99.9,30.44,North,357,2.0,3.0,-999,-99.99,,,-99.99,,2013-05-02 06:52:00,
2013-05-02 03:02:00,46.0,-99.9,30.43,NNW,340,2.0,2.0,-999,-99.99,,,-99.99,,2013-05-02 07:02:00,
2013-05-02 03:11:00,46.0,-99.9,30.43,NNW,348,3.0,4.0,-999,-99.99,,,-99.99,,2013-05-02 07:11:00,
2013-05-02 03:22:00,47.0,-99.9,30.44,North,351,3.0,4.0,-999,-99.99,,,-99.99,,2013-05-02 07:22:00,
2013-05-02 03:32:00,47.0,-99.9,30.44,North,352,3.0,4.0,-999,-99.99,,,-99.99,,2013-05-02 07:32:00,
2013-05-02 03:42:00,47.0,-99.9,30.43,NNW,343,3.0,4.0,-999,-99.99,,,-99.99,,2013-05-02 07:42:00,
2013-05-02 03:52:00,47.0,-99.9,30.43,NNW,348,3.0,4.0,-999,-99.99,,,-99.99,,2013-05-02 07:52:00,
2013-05-02 04:02:00,47.0,-99.9,30.42,North,359,2.0,4.0,-999,-99.99,,,-99.99,,2013-05-02 08:02:00,
2013-05-02 04:11:00,47.0,-99.9,30.42,North,355,1.0,4.0,-999,-99.99,,,-99.99,,2013-05-02 08:11:00,
2013-05-02 04:22:00,47.0,-99.9,30.42,North,5,2.0,3.0,-999,-99.99,,,-99.99,,2013-05-02 08:22:00,
2013-05-02 04:32:00,47.0,-99.9,30.43,North,355,4.0,5.0,-999,-99.99,,,-99.99,,2013-05-02 08:32:00,
2013-05-02 04:42:00,47.0,-99.9,30.43,North,353,2.0,4.0,-999,-99.99,,,-99.99,,2013-05-02 08:42:00,
2013-05-02 04:52:00,47.0,-99.9,30.43,North,8,2.0,3.0,-999,-99.99,,,-99.99,,2013-05-02 08:52:00,
2013-05-02 05:02:00,47.0,-99.9,30.43,North,4,2.0,2.0,-999,-99.99,,,-99.99,,2013-05-02 09:02:00,
2013-05-02 05:12:00,47.0,-99.9,30.42,North,8,1.0,2.0,-999,-99.99,,,-99.99,,2013-05-02 09:12:00,
2013-05-02 05:22:00,47.0,-99.9,30.42,NNE,19,2.0,2.0,-999,-99.99,,,-99.99,,2013-05-02 09:22:00,
2013-05-02 05:33:00,47.0,-99.9,30.42,NE,44,-999.0,3.0,-999,-99.99,,,-99.99,,2013-05-02 09:33:00,
2013-05-02 05:43:00,46.0,-99.9,30.43,NE,40,0.0,2.0,-999,-99.99,,,-99.99,,2013-05-02 09:43:00,
2013-05-02 05:52:00,45.0,-99.9,30.43,North,-999,-999.0,-999.0,-999,-99.99,,,-99.99,,2013-05-02 09:52:00,
2013-05-02 06:03:00,45.0,-99.9,30.43,North,-999,-999.0,-999.0,-999,-99.99,,,-99.99,,2013-05-02 10:03:00,
2013-05-02 06:12:00,45.0,-99.9,30.43,East,94,1.0,1.0,-999,-99.99,,,-99.99,,2013-05-02 10:12:00,
2013-05-02 06:23:00,45.0,-99.9,30.43,North,-999,-999.0,-999.0,-999,-99.99,,,-99.99,,2013-05-02 10:23:00,
2013-05-02 06:33:00,46.0,-99.9,30.43,North,-999,-999.0,-999.0,-999,-99.99,,,-99.99,,2013-05-02 10:33:00,
2013-05-02 06:42:00,46.0,-99.9,30.43,SE,136,0.0,-999.0,-999,-99.99,,,-99.99,,2013-05-02 10:42:00,
2013-05-02 06:53:00,47.0,-99.9,30.43,North,-999,-999.0,-999.0,-999,-99.99,,,-99.99,,2013-05-02 10:53:00,
2013-05-02 07:02:00,49.0,-99.9,30.42,North,-999,-999.0,-999.0,-999,-99.99,,,-99.99,,2013-05-02 11:02:00,
2013-05-02 07:12:00,50.0,-99.9,30.42,North,-999,-999.0,-999.0,-999,-99.99,,,-99.99,,2013-05-02 11:12:00,
2013-05-02 07:22:00,52.0,-99.9,30.43,North,-999,-999.0,-999.0,-999,-99.99,,,-99.99,,2013-05-02 11:22:00,
2013-05-02 07:32:00,55.0,-99.9,30.43,North,-999,-999.0,-999.0,-999,-99.99,,,-99.99,,2013-05-02 11:32:00,
2013-05-02 07:42:00,54.0,-99.9,30.43,East,94,-999.0,1.0,-999,-99.99,,,-99.99,,2013-05-02 11:42:00,
2013-05-02 07:52:00,53.0,-99.9,30.44,North,-999,-999.0,-999.0,-999,-99.99,,,-99.99,,2013-05-02 11:52:00,
2013-05-02 08:01:00,53.0,-99.9,30.44,NNW,337,2.0,4.0,-999,-99.99,,,-99.99,,2013-05-02 12:01:00,
2013-05-02 08:12:00,53.0,-99.9,30.44,NNW,334,3.0,4.0,-999,-99.99,,,-99.99,,2013-05-02 12:12:00,
2013-05-02 08:22:00,54.0,-99.9,30.44,North,350,2.0,3.0,-999,-99.99,,,-99.99,,2013-05-02 12:22:00,
2013-05-02 08:32:00,54.0,-99.9,30.45,NNW,340,2.0,4.0,-999,-99.99,,,-99.99,,2013-05-02 12:32:00,
2013-05-02 08:42:00,54.0,-99.9,30.44,NNW,344,3.0,4.0,-999,-99.99,,,-99.99,,2013-05-02 12:42:00,
2013-05-02 08:52:00,54.0,-99.9,30.44,NW,309,2.0,4.0,-999,-99.99,,,-99.99,,2013-05-02 12:52:00,
2013-05-02 09:01:00,54.0,-99.9,30.44,NNW,343,3.0,5.0,-999,-99.99,,,-99.99,,2013-05-02 13:01:00,
2013-05-02 09:11:00,55.0,-99.9,30.45,NNW,338,3.0,5.0,-999,-99.99,,,-99.99,,2013-05-02 13:11:00,
2013-05-02 09:22:00,54.0,-99.9,30.44,NW,323,3.0,6.0,-999,-99.99,,,-99.99,,2013-05-02 13:22:00,
2013-05-02 09:32:00,55.0,-99.9,30.44,North,2,3.0,6.0,-999,-99.99,,,-99.99,,2013-05-02 13:32:00,
2013-05-02 09:42:00,55.0,-99.9,30.44,North,354,5.0,6.0,-999,-99.99,,,-99.99,,2013-05-02 13:42:00,
2013-05-02 09:52:00,54.0,-99.9,30.45,North,3,4.0,6.0,-999,-99.99,,,-99.99,,2013-05-02 13:52:00,
2013-05-02 10:02:00,55.0,-99.9,30.44,North,355,4.0,6.0,-999,-99.99,,,-99.99,,2013-05-02 14:02:00,
2013-05-02 10:11:00,55.0,-99.9,30.44,North,3,6.0,7.0,-999,-99.99,,,-99.99,,2013-05-02 14:11:00,
2013-05-02 10:22:00,55.0,-99.9,30.44,North,354,5.0,7.0,-999,-99.99,,,-99.99,,2013-05-02 14:22:00,
2013-05-02 10:32:00,56.0,-99.9,30.44,North,3,4.0,6.0,-999,-99.99,,,-99.99,,2013-05-02 14:32:00,
2013-05-02 10:43:00,56.0,-99.9,30.44,North,355,3.0,5.0,-999,-99.99,,,-99.99,,2013-05-02 14:43:00,
2013-05-02 10:52:00,57.0,-99.9,30.44,NNE,18,4.0,5.0,-999,-99.99,,,-99.99,,2013-05-02 14:52:00,
2013-05-02 11:02:00,58.0,-99.9,30.44,NNE,12,4.0,5.0,-999,-99.99,,,-99.99,,2013-05-02 15:02:00,
2013-05-02 11:12:00,57.0,-99.9,30.43,North,11,5.0,6.0,-999,-99.99,,,-99.99,,2013-05-02 15:12:00,
2013-05-02 11:22:00,57.0,-99.9,30.43,North,8,5.0,6.0,-999,-99.99,,,-99.99,,2013-05-02 15:22:00,
2013-05-02 11:33:00,58.0,-99.9,30.43,North,3,5.0,6.0,-999,-99.99,,,-99.99,,2013-05-02 15:33:00,
2013-05-02 11:43:00,58.0,-99.9,30.43,North,4,4.0,6.0,-999,-99.99,,,-99.99,,2013-05-02 15:43:00,
2013-05-02 12:03:00,58.0,-99.9,30.43,North,358,6.0,7.0,-999,-99.99,,,-99.99,,2013-05-02 16:03:00,
2013-05-02 12:13:00,59.0,-99.9,30.42,North,3,5.0,7.0,-999,-99.99,,,-99.99,,2013-05-02 16:13:00,
2013-05-02 12:23:00,60.0,-99.9,30.42,North,352,5.0,6.0,-999,-99.99,,,-99.99,,2013-05-02 16:23:00,
2013-05-02 12:32:00,60.0,-99.9,30.42,North,2,6.0,8.0,-999,-99.99,,,-99.99,,2013-05-02 16:32:00,
2013-05-02 12:43:00,60.0,-99.9,30.41,North,359,6.0,8.0,-999,-99.99,,,-99.99,,2013-05-02 16:43:00,
2013-05-02 12:52:00,60.0,-99.9,30.41,North,-999,6.0,8.0,-999,-99.99,,,-99.99,,2013-05-02 16:52:00,
2013-05-02 13:02:00,62.0,-99.9,30.41,North,6,5.0,6.0,-999,-99.99,,,-99.99,,2013-05-02 17:02:00,
2013-05-02 13:12:00,62.0,-99.9,30.41,North,8,5.0,9.0,-999,-99.99,,,-99.99,,2013-05-02 17:12:00,
2013-05-02 13:22:00,62.0,-99.9,30.40,North,-999,5.0,7.0,-999,-99.99,,,-99.99,,2013-05-02 17:22:00,
2013-05-02 13:32:00,62.0,-99.9,30.40,North,5,4.0,7.0,-999,-99.99,,,-99.99,,2013-05-02 17:32:00,
2013-05-02 13:42:00,62.0,-99.9,30.40,North,5,5.0,7.0,-999,-99.99,,,-99.99,,2013-05-02 17:42:00,
2013-05-02 13:52:00,63.0,-99.9,30.40,North,1,4.0,7.0,-999,-99.99,,,-99.99,,2013-05-02 17:52:00,
2013-05-02 14:02:00,63.0,-99.9,30.40,North,1,4.0,6.0,-999,-99.99,,,-99.99,,2013-05-02 18:02:00,
2013-05-02 14:12:00,63.0,-99.9,30.41,North,9,5.0,7.0,-999,-99.99,,,-99.99,,2013-05-02 18:12:00,
2013-05-02 14:22:00,63.0,-99.9,30.40,North,3,4.0,7.0,-999,-99.99,,,-99.99,,2013-05-02 18:22:00,
2013-05-02 14:32:00,64.0,-99.9,30.40,NNE,25,3.0,6.0,-999,-99.99,,,-99.99,,2013-05-02 18:32:00,
2013-05-02 14:42:00,64.0,-99.9,30.40,North,6,4.0,5.0,-999,-99.99,,,-99.99,,2013-05-02 18:42:00,
2013-05-02 14:52:00,63.0,-99.9,30.40,North,7,6.0,8.0,-999,-99.99,,,-99.99,,2013-05-02 18:52:00,
2013-05-02 15:01:00,63.0,-99.9,30.39,North,9,5.0,7.0,-999,-99.99,,,-99.99,,2013-05-02 19:01:00,
2013-05-02 15:11:00,64.0,-99.9,30.39,North,7,5.0,7.0,-999,-99.99,,,-99.99,,2013-05-02 19:11:00,
2013-05-02 15:22:00,62.0,-99.9,30.39,North,8,5.0,8.0,-999,-99.99,,,-99.99,,2013-05-02 19:22:00,
2013-05-02 15:32:00,62.0,-99.9,30.39,North,358,5.0,9.0,-999,-99.99,,,-99.99,,2013-05-02 19:32:00,
2013-05-02 15:42:00,62.0,-99.9,30.39,North,8,6.0,8.0,-999,-99.99,,,-99.99,,2013-05-02 19:42:00,
2013-05-02 15:52:00,60.0,-99.9,30.40,North,5,6.0,8.0,-999,-99.99,,,-99.99,,2013-05-02 19:52:00,
2013-05-02 16:02:00,59.0,-99.9,30.40,North,5,7.0,9.0,-999,-99.99,,,-99.99,,2013-05-02 20:02:00,
2013-05-02 16:12:00,59.0,-99.9,30.39,North,7,7.0,9.0,-999,-99.99,,,-99.99,,2013-05-02 20:12:00,
2013-05-02 16:22:00,60.0,-99.9,30.39,North,8,6.0,9.0,-999,-99.99,,,-99.99,,2013-05-02 20:22:00,
2013-05-02 16:32:00,59.0,-99.9,30.39,NE,50,10.0,13.0,-999,-99.99,,,-99.99,,2013-05-02 20:32:00,
2013-05-02 16:42:00,59.0,-99.9,30.39,NE,37,9.0,13.0,-999,-99.99,,,-99.99,,2013-05-02 20:42:00,
2013-05-02 16:52:00,58.0,-99.9,30.40,NE,48,8.0,12.0,-999,-99.99,,,-99.99,,2013-05-02 20:52:00,
2013-05-02 17:01:00,56.0,-99.9,30.40,ENE,61,10.0,16.0,-999,-99.99,,,-99.99,,2013-05-02 21:01:00,
2013-05-02 17:12:00,56.0,-99.9,30.40,ENE,58,11.0,14.0,-999,-99.99,,,-99.99,,2013-05-02 21:12:00,
2013-05-02 17:22:00,55.0,-99.9,30.39,NE,56,10.0,15.0,-999,-99.99,,,-99.99,,2013-05-02 21:22:00,
2013-05-02 17:33:00,55.0,-99.9,30.38,ENE,62,7.0,13.0,-999,-99.99,,,-99.99,,2013-05-02 21:33:00,
2013-05-02 17:43:00,55.0,-99.9,30.38,NE,53,7.0,11.0,-999,-99.99,,,-99.99,,2013-05-02 21:43:00,
2013-05-02 17:53:00,55.0,-99.9,30.39,ENE,58,10.0,11.0,-999,-99.99,,,-99.99,,2013-05-02 21:53:00,
2013-05-02 18:03:00,55.0,-99.9,30.39,NE,49,9.0,13.0,-999,-99.99,,,-99.99,,2013-05-02 22:03:00,
2013-05-02 18:13:00,54.0,-99.9,30.39,ENE,62,8.0,13.0,-999,-99.99,,,-99.99,,2013-05-02 22:13:00,
2013-05-02 18:22:00,53.0,-99.9,30.39,ENE,60,9.0,16.0,-999,-99.99,,,-99.99,,2013-05-02 22:22:00,
2013-05-02 18:33:00,52.0,-99.9,30.39,ENE,59,14.0,17.0,-999,-99.99,,,-99.99,,2013-05-02 22:33:00,
2013-05-02 18:42:00,51.0,-99.9,30.39,ENE,61,15.0,19.0,-999,-99.99,,,-99.99,,2013-05-02 22:42:00,
2013-05-02 18:53:00,51.0,-99.9,30.40,ENE,68,17.0,20.0,-999,-99.99,,,-99.99,,2013-05-02 22:53:00,
2013-05-02 19:02:00,50.0,-99.9,30.41,ENE,62,15.0,21.0,-999,-99.99,,,-99.99,,2013-05-02 23:02:00,
2013-05-02 19:12:00,50.0,-99.9,30.41,ENE,61,13.0,19.0,-999,-99.99,,,-99.99,,2013-05-02 23:12:00,
2013-05-02 19:22:00,49.0,-99.9,30.40,ENE,64,16.0,20.0,-999,-99.99,,,-99.99,,2013-05-02 23:22:00,
2013-05-02 19:32:00,49.0,-99.9,30.41,ENE,68,14.0,23.0,-999,-99.99,,,-99.99,,2013-05-02 23:32:00,
2013-05-02 19:42:00,49.0,-99.9,30.41,ENE,61,15.0,19.0,-999,-99.99,,,-99.99,,2013-05-02 23:42:00,
2013-05-02 19:52:00,49.0,-99.9,30.40,ENE,62,17.0,22.0,-999,-99.99,,,-99.99,,2013-05-02 23:52:00,
2013-05-02 20:01:00,49.0,-99.9,30.42,ENE,59,16.0,21.0,-999,-99.99,,,-99.99,,2013-05-03 00:01:00,
2013-05-02 20:12:00,48.0,-99.9,30.42,ENE,61,16.0,21.0,-999,-99.99,,,-99.99,,2013-05-03 00:12:00,
2013-05-02 20:22:00,48.0,-99.9,30.42,ENE,61,14.0,19.0,-999,-99.99,,,-99.99,,2013-05-03 00:22:00,
2013-05-02 20:32:00,48.0,-99.9,30.42,ENE,63,16.0,18.0,-999,-99.99,,,-99.99,,2013-05-03 00:32:00,
2013-05-02 20:42:00,48.0,-99.9,30.42,ENE,64,16.0,19.0,-999,-99.99,,,-99.99,,2013-05-03 00:42:00,
2013-05-02 20:52:00,48.0,-99.9,30.43,ENE,61,16.0,21.0,-999,-99.99,,,-99.99,,2013-05-03 00:52:00,
2013-05-02 21:02:00,48.0,-99.9,30.44,ENE,68,16.0,21.0,-999,-99.99,,,-99.99,,2013-05-03 01:02:00,
2013-05-02 21:11:00,48.0,-99.9,30.44,ENE,67,15.0,18.0,-999,-99.99,,,-99.99,,2013-05-03 01:11:00,
2013-05-02 21:21:00,47.0,-99.9,30.45,ENE,63,13.0,20.0,-999,-99.99,,,-99.99,,2013-05-03 01:21:00,
2013-05-02 21:32:00,47.0,-99.9,30.44,ENE,77,12.0,15.0,-999,-99.99,,,-99.99,,2013-05-03 01:32:00,
2013-05-02 21:42:00,47.0,-99.9,30.44,ENE,67,11.0,16.0,-999,-99.99,,,-99.99,,2013-05-03 01:42:00,
2013-05-02 21:52:00,47.0,-99.9,30.44,ENE,69,10.0,16.0,-999,-99.99,,,-99.99,,2013-05-03 01:52:00,
2013-05-02 22:02:00,47.0,-99.9,30.44,East,84,9.0,11.0,-999,-99.99,,,-99.99,,2013-05-03 02:02:00,
2013-05-02 22:11:00,47.0,-99.9,30.43,ENE,77,8.0,11.0,-999,-99.99,,,-99.99,,2013-05-03 02:11:00,
2013-05-02 22:22:00,46.0,-99.9,30.43,ENE,72,8.0,11.0,-999,-99.99,,,-99.99,,2013-05-03 02:22:00,
2013-05-02 22:32:00,46.0,-99.9,30.43,East,82,8.0,11.0,-999,-99.99,,,-99.99,,2013-05-03 02:32:00,
2013-05-02 22:42:00,46.0,-99.9,30.44,East,82,6.0,9.0,-999,-99.99,,,-99.99,,2013-05-03 02:42:00,
2013-05-02 22:52:00,46.0,-99.9,30.43,ENE,68,6.0,9.0,-999,-99.99,,,-99.99,,2013-05-03 02:52:00,
2013-05-02 23:01:00,46.0,-99.9,30.43,East,81,6.0,8.0,-999,-99.99,,,-99.99,,2013-05-03 03:01:00,
2013-05-02 23:11:00,46.0,-99.9,30.43,East,87,7.0,10.0,-999,-99.99,,,-99.99,,2013-05-03 03:11:00,
2013-05-02 23:22:00,46.0,-99.9,30.43,ENE,74,7.0,9.0,-999,-99.99,,,-99.99,,2013-05-03 03:22:00,
2013-05-02 23:33:00,46.0,-99.9,30.43,East,83,9.0,11.0,-999,-99.99,,,-99.99,,2013-05-03 03:33:00,
2013-05-02 23:43:00,46.0,-99.9,30.43,East,89,7.0,10.0,-999,-99.99,,,-99.99,,2013-05-03 03:43:00,
2013-05-02 23:53:00,45.0,-99.9,30.43,East,79,7.0,10.0,-999,-99.99,,,-99.99,,2013-05-03 03:53:00,